[[{"header":{"parameterUnit":"m.s-1","parameterCategory":1,"la1":30.2991,"la2":30.254,"lo1":-89.0895,"lo2":-89.0444,"dx":0.0017,"dy":0.0017,"nx":28,"ny":28,"refTime":"2023-01-22T03:00:00:Z","depth":0,"parameterNumber":2,"parameterNumberName":"U-component_of_WINDS"},"data":[0,0,0,0,0,0,0,0,0,0,0,0,0,0,0,0,0,0,0,0,0,0,0,0,0,0,0,0,0,0,0,0,0,0,0,0,0,0,0,0,0,0,0,0,0,0,0,0,0,0,0,0,0,0,0,0,0,0,2.9662,2.9663,0,2.9722,2.9723,2.9724,2.9681,2.9679,2.9677,2.9676,2.9738,2.9741,2.9745,0,0,0,0,0,0,0,0,0,0,0,0,0,2.9512,2.9515,2.9662,2.9663,2.9664,2.9722,2.9723,2.9724,2.9682,2.9679,2.9677,2.9675,2.9737,2.9741,2.9745,0,0,0,0,0,0,0,0,0,0,0,0,0,2.9575,2.9516,2.9662,2.965,2.9649,2.9722,2.9723,2.9724,2.9682,2.9679,2.9676,2.9674,2.9735,2.974,2.9745,2.9834,0,0,2.9761,2.9763,0,0,0,0,0,0,0,0,2.9571,2.958,2.9651,2.9651,2.965,2.9691,2.9693,2.9761,2.9683,2.967,2.9676,2.9672,2.9725,2.9731,2.9748,2.9837,2.984,2.9762,2.9765,2.9767,2.9768,0,0,0,0,0,0,0,2.9567,2.9578,2.9686,2.9652,2.9651,2.9641,2.9647,2.9705,2.9712,2.967,2.9668,2.9675,2.9724,2.9743,2.9749,2.9841,2.9761,2.9766,2.9769,2.9771,3.0006,3.0009,0,0,0,0,0,0,2.9564,2.9574,2.9684,2.9688,2.9603,2.9646,2.9653,2.9681,2.9712,2.9714,2.9678,2.9673,2.9736,2.9743,2.9751,2.9858,2.9767,2.9772,2.9775,3.0003,3.0007,3.0011,0,0,0,0,0,0,2.9561,2.9574,2.9682,2.963,2.9643,2.9652,2.9684,2.9684,2.9703,2.9717,2.9718,2.9696,2.9734,2.9744,2.9814,2.9859,2.9774,2.9779,3.0,3.0004,3.0009,3.0071,0,0,0,0,0,0,2.9556,2.9573,2.9606,2.9631,2.9646,2.9743,2.9687,2.9687,2.9712,2.9706,2.9734,2.9736,2.9732,2.9807,2.9819,2.9865,2.9783,2.9996,3.0002,3.0007,3.0065,3.0077,3.0088,0,0,0,0,0,2.9551,2.9621,2.9608,2.9622,2.9688,2.9746,2.9754,2.9748,2.9716,2.975,2.9759,2.9736,2.9852,2.9814,2.9828,2.9876,2.9993,3.0,3.0007,3.006,3.0075,3.0088,0,0,0,0,0,0,2.9602,2.9624,2.961,2.969,2.9717,2.9739,2.9781,2.9764,2.98,2.9794,2.9785,2.9791,2.9865,2.9877,2.9834,2.9964,2.9917,2.9928,2.9953,2.9967,2.9979,2.9974,2.9787,0,0,0,0,0,2.9622,2.9667,2.9684,2.9754,2.9767,2.9772,2.9797,2.979,2.9817,2.9828,2.9842,2.9869,2.9912,2.994,2.998,3.0067,3.0073,3.0107,3.0118,3.0127,3.0136,3.0184,3.0199,3.0034,3.0034,3.0034,0,0,2.9665,2.9683,2.9712,2.9764,2.9784,2.9831,2.9782,2.9833,2.9868,2.9836,2.9903,2.9914,2.9944,3.0023,3.0058,3.0035,3.0184,3.0137,3.0144,3.0148,3.0193,3.0208,3.0222,3.0039,3.0038,3.0037,0,0,2.9767,2.9785,2.9845,2.9865,2.9895,2.9898,2.9913,2.9938,2.9944,3.0011,2.9988,3.003,3.0104,3.0126,3.0147,3.0259,3.0239,3.0272,3.0332,3.0378,3.0391,3.0403,3.0443,3.0458,3.0281,3.0281,3.0281,0,2.9816,2.9886,2.9878,2.9931,2.9955,2.9928,2.9989,3.001,3.0052,3.0069,3.0043,3.0136,3.0154,3.0238,3.0265,3.0283,3.03,3.0269,3.039,3.0402,3.0412,3.0451,3.0466,3.0285,3.0285,3.0284,3.0284,0,2.9945,2.9994,3.0039,3.008,3.0109,3.0166,3.0168,3.0198,3.0189,3.0195,3.0265,3.0285,3.033,3.0349,3.0341,3.0433,3.0418,3.0391,3.0344,3.0432,3.0468,3.0483,3.0291,3.0289,3.0288,3.0287,0,0,3.008,3.0117,3.0133,3.0152,3.0184,3.0221,3.0278,3.0321,3.0348,3.0378,3.0425,3.0489,3.0465,3.0489,3.0483,3.0524,3.0612,3.0492,3.0493,3.0514,3.0715,3.0735,3.0752,3.0599,3.0602,3.0604,3.0713,0,3.0184,3.0282,3.0277,3.0369,3.0414,3.0389,3.0439,3.0464,3.0471,3.0511,3.0519,3.0565,3.0529,3.0543,3.0583,3.0593,3.0652,3.0585,3.0644,3.0646,3.0637,3.0771,3.0792,3.0894,3.0727,3.0729,3.0731,0,3.0318,3.0353,3.045,3.0475,3.0494,3.0538,3.0578,3.0616,3.0645,3.0647,3.0675,3.0662,3.072,3.0672,3.0752,3.0706,3.073,3.0739,3.0743,3.0748,3.0694,3.0781,3.0926,3.0942,3.0753,3.0751,3.075,0,3.0408,3.0479,3.0546,3.0562,3.0594,3.0626,3.0641,3.0666,3.0693,3.0728,3.0745,3.0787,3.0809,3.0842,3.0841,3.0806,3.0923,3.0874,3.0927,3.0927,3.0952,3.0951,3.1104,3.0967,3.0967,3.0967,3.0967,0,3.0524,3.0585,3.0586,3.0628,3.0695,3.0689,3.0755,3.0767,3.079,3.0833,3.0815,3.0856,3.0853,3.0895,3.0895,3.0961,3.0972,3.0976,3.0975,3.0978,3.0977,3.0993,3.0986,3.0971,3.097,3.0969,3.0969,0,3.0636,3.0639,3.0711,3.0735,3.0742,3.0791,3.0812,3.0851,3.0857,3.0913,3.0925,3.0935,3.0984,3.0986,3.1042,3.1042,3.1123,3.1115,3.1114,3.1112,3.1165,3.116,3.1334,3.1357,3.1205,3.1207,3.1208,0,3.071,3.0756,3.0785,3.0813,3.0829,3.0874,3.0901,3.0898,3.0927,3.0963,3.0999,3.1046,3.1083,3.1162,3.1174,3.1217,3.121,3.1268,3.1216,3.1217,3.1211,3.1209,3.1213,3.1278,3.128,3.1281,3.1282,0,3.0842,3.0842,3.0881,3.0922,3.0955,3.0988,3.1017,3.1041,3.1041,3.1075,3.1125,3.1154,3.1211,3.1258,3.1301,3.1316,3.13,3.1298,3.1313,3.1316,3.1314,3.1316,3.1142,3.1294,3.1293,3.1292,3.1292,3.1291,3.0937,3.0977,3.1004,3.1049,3.1071,3.11,3.1138,3.1149,3.119,3.1237,3.1232,3.1287,3.1316,3.1371,3.139,3.1433,3.1413,3.1434,3.144,3.1445,3.1451,3.1307,3.1441,3.1441,3.144,3.144,3.144,0,3.1068,3.1085,3.1126,3.1169,3.1205,3.1186,3.1218,3.125,3.1298,3.1326,3.1363,3.1421,3.1466,3.1483,3.1527,3.1559,3.1553,3.1571,3.1569,3.1573,3.1466,3.1449,3.1576,3.1576,3.1576,3.1575,3.1575,3.1575,3.1141,3.1207,3.121,3.1288,3.1304,3.1358,3.1378,3.1405,3.1426,3.1491,3.1529,3.1539,3.1563,3.1609,3.1651,3.1654,3.1672,3.1694,3.1694,3.1594,3.158,3.1567,3.1551,3.1697,3.1698,3.1798,3.1799,3.1799]},{"header":{"parameterUnit":"m.s-1","parameterCategory":1,"la1":30.2991,"la2":30.254,"lo1":-89.0895,"lo2":-89.0444,"dx":0.0017,"dy":0.0017,"nx":28,"ny":28,"refTime":"2023-01-22T03:00:00:Z","depth":0,"parameterNumber":3,"parameterNumberName":"V-component_of_WINDS"},"data":[0,0,0,0,0,0,0,0,0,0,0,0,0,0,0,0,0,0,0,0,0,0,0,0,0,0,0,0,0,0,0,0,0,0,0,0,0,0,0,0,0,0,0,0,0,0,0,0,0,0,0,0,0,0,0,0,0,0,-5.1959,-5.1961,0,-5.2133,-5.2135,-5.2137,-5.211,-5.2107,-5.2104,-5.2101,-5.2276,-5.2283,-5.229,0,0,0,0,0,0,0,0,0,0,0,0,0,-5.1601,-5.1608,-5.1959,-5.1961,-5.1964,-5.2133,-5.2135,-5.2138,-5.211,-5.2106,-5.2103,-5.2099,-5.2273,-5.2282,-5.2291,0,0,0,0,0,0,0,0,0,0,0,0,0,-5.1764,-5.161,-5.1959,-5.197,-5.1973,-5.2132,-5.2135,-5.2138,-5.2111,-5.2106,-5.2102,-5.2098,-5.227,-5.2281,-5.2292,-5.245,0,0,-5.2326,-5.2331,0,0,0,0,0,0,0,0,-5.1755,-5.1777,-5.1966,-5.197,-5.1973,-5.2095,-5.2073,-5.2243,-5.2112,-5.2058,-5.2101,-5.2096,-5.2219,-5.2234,-5.2276,-5.2458,-5.2466,-5.2327,-5.2334,-5.2339,-5.2342,0,0,0,0,0,0,0,-5.1744,-5.177,-5.2028,-5.1969,-5.1973,-5.1966,-5.1984,-5.2105,-5.2161,-5.2063,-5.2061,-5.2082,-5.222,-5.2266,-5.228,-5.2468,-5.2327,-5.2337,-5.2344,-5.2348,-5.2789,-5.2794,0,0,0,0,0,0,-5.1729,-5.176,-5.2022,-5.2033,-5.1851,-5.1976,-5.1996,-5.206,-5.216,-5.2171,-5.2086,-5.208,-5.2249,-5.2267,-5.2286,-5.2479,-5.2339,-5.2349,-5.2355,-5.2784,-5.279,-5.2796,0,0,0,0,0,0,-5.1722,-5.1753,-5.2015,-5.1897,-5.1929,-5.1987,-5.2059,-5.2066,-5.2112,-5.2178,-5.2187,-5.2123,-5.2246,-5.2271,-5.241,-5.2484,-5.2354,-5.2364,-5.2778,-5.2786,-5.2793,-5.2864,0,0,0,0,0,0,-5.1712,-5.1751,-5.1812,-5.1898,-5.1936,-5.2137,-5.2064,-5.2073,-5.2132,-5.2126,-5.2215,-5.2225,-5.2244,-5.2394,-5.2421,-5.2497,-5.2373,-5.2772,-5.2782,-5.2791,-5.2856,-5.2873,-5.2889,0,0,0,0,0,-5.1699,-5.1824,-5.1815,-5.1847,-5.2014,-5.2142,-5.2163,-5.2184,-5.2138,-5.22,-5.2242,-5.2222,-5.2472,-5.2408,-5.2439,-5.252,-5.2767,-5.2779,-5.279,-5.2848,-5.287,-5.2888,0,0,0,0,0,0,-5.1744,-5.1836,-5.1826,-5.1983,-5.2055,-5.2137,-5.2215,-5.2206,-5.2292,-5.2283,-5.2304,-5.2324,-5.2466,-5.2506,-5.2434,-5.2678,-5.2613,-5.2631,-5.2647,-5.2668,-5.2684,-5.2672,-5.2382,0,0,0,0,0,-5.1772,-5.1869,-5.1944,-5.2075,-5.2111,-5.2157,-5.2214,-5.2224,-5.2298,-5.2328,-5.2381,-5.2453,-5.2548,-5.261,-5.27,-5.2861,-5.288,-5.2932,-5.2948,-5.2961,-5.2977,-5.3065,-5.3089,-5.2833,-5.2833,-5.2833,0,0,-5.1831,-5.1893,-5.1953,-5.2085,-5.2142,-5.2242,-5.2183,-5.229,-5.2365,-5.2344,-5.248,-5.2521,-5.2603,-5.2754,-5.2823,-5.2792,-5.3052,-5.2976,-5.2986,-5.2994,-5.3079,-5.3104,-5.3125,-5.2841,-5.2839,-5.2838,0,0,-5.199,-5.2047,-5.2163,-5.2221,-5.2308,-5.2338,-5.2366,-5.245,-5.2476,-5.2613,-5.26,-5.2687,-5.285,-5.291,-5.2961,-5.3143,-5.3129,-5.3172,-5.3258,-5.3345,-5.3365,-5.3383,-5.3449,-5.3472,-5.3187,-5.3187,-5.3187,0,-5.2053,-5.2203,-5.2223,-5.2333,-5.2392,-5.2379,-5.2497,-5.2552,-5.2664,-5.2704,-5.2668,-5.2873,-5.2927,-5.3092,-5.3137,-5.3178,-5.3211,-5.3162,-5.336,-5.3379,-5.3396,-5.3459,-5.3483,-5.3192,-5.3191,-5.3191,-5.319,0,-5.2276,-5.2381,-5.2464,-5.2574,-5.2641,-5.2754,-5.2791,-5.2857,-5.2861,-5.2894,-5.3034,-5.3098,-5.3203,-5.3242,-5.3246,-5.3408,-5.3387,-5.3355,-5.3291,-5.3425,-5.3484,-5.3508,-5.3199,-5.3197,-5.3196,-5.3195,0,0,-5.2469,-5.2589,-5.2619,-5.2669,-5.2764,-5.2845,-5.2957,-5.306,-5.3117,-5.3194,-5.3289,-5.3427,-5.3399,-5.3458,-5.3468,-5.3544,-5.3685,-5.3503,-5.3506,-5.3536,-5.3868,-5.3892,-5.3919,-5.3675,-5.368,-5.3684,-5.3861,0,-5.2638,-5.2838,-5.2859,-5.3037,-5.3134,-5.3123,-5.3221,-5.329,-5.3324,-5.341,-5.3447,-5.3545,-5.35,-5.3536,-5.361,-5.3652,-5.3752,-5.3639,-5.3764,-5.3768,-5.3745,-5.395,-5.3976,-5.414,-5.3885,-5.3889,-5.3892,0,-5.2863,-5.2948,-5.3136,-5.3218,-5.3259,-5.3347,-5.3443,-5.3526,-5.3604,-5.3623,-5.3689,-5.369,-5.3805,-5.3735,-5.3894,-5.3817,-5.3869,-5.3897,-5.3904,-5.3917,-5.3839,-5.397,-5.4193,-5.4218,-5.3928,-5.3925,-5.3923,0,-5.2986,-5.3147,-5.3281,-5.3324,-5.3423,-5.3485,-5.3529,-5.3602,-5.3662,-5.3746,-5.3786,-5.3881,-5.3934,-5.4007,-5.4034,-5.3981,-5.4192,-5.4124,-5.4212,-5.4211,-5.4257,-5.4254,-5.4493,-5.4289,-5.4289,-5.4288,-5.4288,0,-5.3173,-5.3289,-5.3338,-5.342,-5.3549,-5.3572,-5.3699,-5.374,-5.3805,-5.3895,-5.389,-5.3974,-5.4004,-5.4093,-5.4114,-5.4243,-5.4266,-5.4285,-5.429,-5.4287,-5.4284,-5.4321,-5.4311,-5.4295,-5.4293,-5.4292,-5.4291,0,-5.3333,-5.3371,-5.3516,-5.3598,-5.3621,-5.3713,-5.3783,-5.3862,-5.3894,-5.4008,-5.4036,-5.4087,-5.4192,-5.4225,-5.4351,-5.4365,-5.4516,-5.451,-5.4491,-5.4492,-5.4578,-5.4569,-5.485,-5.4888,-5.4657,-5.466,-5.4661,0,-5.3451,-5.354,-5.3632,-5.3692,-5.3739,-5.3836,-5.3898,-5.3923,-5.3988,-5.4083,-5.4151,-5.4255,-5.4339,-5.4506,-5.4555,-5.4651,-5.4647,-5.4739,-5.4662,-5.4656,-5.465,-5.4645,-5.4654,-5.4754,-5.4756,-5.4758,-5.476,0,-5.3656,-5.3671,-5.3761,-5.3858,-5.3933,-5.401,-5.4085,-5.4134,-5.4171,-5.4244,-5.4351,-5.4417,-5.4546,-5.4649,-5.4747,-5.4791,-5.4782,-5.4783,-5.4809,-5.4807,-5.4793,-5.4803,-5.4531,-5.4777,-5.4775,-5.4774,-5.4773,-5.4772,-5.38,-5.3879,-5.3956,-5.4057,-5.4116,-5.4186,-5.4265,-5.4308,-5.4398,-5.4506,-5.4515,-5.4631,-5.4706,-5.4837,-5.4886,-5.4977,-5.4951,-5.4987,-5.4997,-5.5006,-5.5013,-5.4777,-5.4995,-5.4994,-5.4994,-5.4993,-5.4993,0,-5.4006,-5.4055,-5.4148,-5.4253,-5.4332,-5.4317,-5.4399,-5.4466,-5.4569,-5.464,-5.4724,-5.4847,-5.4947,-5.5003,-5.5103,-5.5165,-5.5163,-5.519,-5.5186,-5.5197,-5.503,-5.4999,-5.519,-5.519,-5.519,-5.519,-5.519,-5.5189,-5.4123,-5.4256,-5.4279,-5.4441,-5.4489,-5.4604,-5.4652,-5.4716,-5.4773,-5.4912,-5.4995,-5.5031,-5.5097,-5.5201,-5.5292,-5.5306,-5.5343,-5.5373,-5.5385,-5.5228,-5.5208,-5.5189,-5.516,-5.5381,-5.5381,-5.5543,-5.5545,-5.5546]}]]